Time,TemperatureF,DewpointF,PressureIn,WindDirection,WindDirectionDegrees,WindSpeedMPH,WindSpeedGustMPH,Humidity,HourlyPrecipIn,Conditions,Clouds,dailyrainin,SolarRadiationWatts/m^2,SoftwareType,DateUTC
2013-01-22 00:02:00,41.0,-6.0,-100.00,West,281,8.0,24.0,13,0.00,,,0.00,1.000000,,2013-01-22 07:02:00,
2013-01-22 00:12:00,41.0,-6.0,-100.00,West,281,8.0,24.0,13,0.00,,,0.00,1.000000,,2013-01-22 07:12:00,
2013-01-22 00:22:00,41.0,-6.0,-100.00,West,281,8.0,24.0,13,0.00,,,0.00,1.000000,,2013-01-22 07:22:00,
2013-01-22 00:53:00,43.0,-10.0,-100.00,West,260,6.0,15.0,10,0.00,,,0.00,1.000000,,2013-01-22 07:53:00,
2013-01-22 01:02:00,43.0,-10.0,-100.00,West,260,6.0,15.0,10,0.00,,,0.00,1.000000,,2013-01-22 08:02:00,
2013-01-22 01:12:00,43.0,-10.0,-100.00,West,260,6.0,15.0,10,0.00,,,0.00,1.000000,,2013-01-22 08:12:00,
2013-01-22 01:22:00,43.0,-10.0,-100.00,West,260,6.0,15.0,10,0.00,,,0.00,1.000000,,2013-01-22 08:22:00,
2013-01-22 01:53:00,46.0,-12.0,-100.00,West,270,13.0,25.0,8,0.00,,,0.00,1.000000,,2013-01-22 08:53:00,
2013-01-22 02:02:00,46.0,-12.0,-100.00,West,270,13.0,25.0,8,0.00,,,0.00,1.000000,,2013-01-22 09:02:00,
2013-01-22 02:12:00,46.0,-12.0,-100.00,West,270,13.0,25.0,8,0.00,,,0.00,1.000000,,2013-01-22 09:12:00,
2013-01-22 02:22:00,46.0,-12.0,-100.00,West,270,13.0,25.0,8,0.00,,,0.00,1.000000,,2013-01-22 09:22:00,
2013-01-22 02:52:00,46.0,-10.0,-100.00,West,264,14.0,30.0,9,0.00,,,0.00,1.000000,,2013-01-22 09:52:00,
2013-01-22 03:02:00,46.0,-10.0,-100.00,West,264,14.0,30.0,9,0.00,,,0.00,1.000000,,2013-01-22 10:02:00,
2013-01-22 03:12:00,46.0,-10.0,-100.00,West,264,14.0,30.0,9,0.00,,,0.00,1.000000,,2013-01-22 10:12:00,
2013-01-22 03:22:00,46.0,-10.0,-100.00,West,264,14.0,30.0,9,0.00,,,0.00,1.000000,,2013-01-22 10:22:00,
2013-01-22 03:52:00,46.0,-12.0,-100.00,West,265,17.0,37.0,8,0.00,,,0.00,1.000000,,2013-01-22 10:52:00,
2013-01-22 04:02:00,46.0,-12.0,-100.00,West,265,17.0,37.0,8,0.00,,,0.00,1.000000,,2013-01-22 11:02:00,
2013-01-22 04:12:00,46.0,-12.0,-100.00,West,265,17.0,37.0,8,0.00,,,0.00,1.000000,,2013-01-22 11:12:00,
2013-01-22 04:22:00,46.0,-12.0,-100.00,West,265,17.0,37.0,8,0.00,,,0.00,1.000000,,2013-01-22 11:22:00,
2013-01-22 04:53:00,43.0,-10.0,-100.00,SSW,192,4.0,29.0,10,0.00,,,0.00,1.000000,,2013-01-22 11:53:00,
2013-01-22 05:04:00,43.0,-10.0,-100.00,SSW,192,4.0,29.0,10,0.00,,,0.00,1.000000,,2013-01-22 12:04:00,
2013-01-22 05:12:00,43.0,-10.0,-100.00,SSW,192,4.0,29.0,10,0.00,,,0.00,1.000000,,2013-01-22 12:12:00,
2013-01-22 05:23:00,43.0,-10.0,-100.00,SSW,192,4.0,29.0,10,0.00,,,0.00,1.000000,,2013-01-22 12:23:00,
2013-01-22 05:53:00,44.0,-11.0,-100.00,SSW,213,5.0,15.0,9,0.00,,,0.00,1.000000,,2013-01-22 12:53:00,
2013-01-22 06:04:00,44.0,-11.0,-100.00,SSW,213,5.0,15.0,9,0.00,,,0.00,1.000000,,2013-01-22 13:04:00,
2013-01-22 06:13:00,44.0,-11.0,-100.00,SSW,213,5.0,15.0,9,0.00,,,0.00,1.000000,,2013-01-22 13:13:00,
2013-01-22 06:23:00,44.0,-11.0,-100.00,SSW,213,5.0,15.0,9,0.00,,,0.00,1.000000,,2013-01-22 13:23:00,
2013-01-22 06:53:00,44.0,-11.0,-100.00,WSW,252,11.0,21.0,9,0.00,,,0.00,1.000000,,2013-01-22 13:53:00,
2013-01-22 07:03:00,44.0,-11.0,-100.00,WSW,252,11.0,21.0,9,0.00,,,0.00,1.000000,,2013-01-22 14:03:00,
2013-01-22 07:13:00,44.0,-11.0,-100.00,WSW,252,11.0,21.0,9,0.00,,,0.00,1.000000,,2013-01-22 14:13:00,
2013-01-22 07:23:00,44.0,-11.0,-100.00,WSW,252,11.0,21.0,9,0.00,,,0.00,1.000000,,2013-01-22 14:23:00,
2013-01-22 07:54:00,45.0,-15.0,-100.00,West,260,7.0,22.0,7,0.00,,,0.00,1.000000,,2013-01-22 14:54:00,
2013-01-22 08:03:00,45.0,-15.0,-100.00,West,260,7.0,22.0,7,0.00,,,0.00,1.000000,,2013-01-22 15:03:00,
2013-01-22 08:13:00,45.0,-15.0,-100.00,West,260,7.0,22.0,7,0.00,,,0.00,1.000000,,2013-01-22 15:13:00,
2013-01-22 08:23:00,45.0,-15.0,-100.00,West,260,7.0,22.0,7,0.00,,,0.00,1.000000,,2013-01-22 15:23:00,
2013-01-22 08:53:00,45.0,-13.0,-100.00,West,264,3.0,10.0,8,0.00,,,0.00,26.000000,,2013-01-22 15:53:00,
2013-01-22 09:03:00,45.0,-13.0,-100.00,West,264,3.0,10.0,8,0.00,,,0.00,26.000000,,2013-01-22 16:03:00,
2013-01-22 09:13:00,45.0,-13.0,-100.00,West,264,3.0,10.0,8,0.00,,,0.00,26.000000,,2013-01-22 16:13:00,
2013-01-22 09:23:00,45.0,-13.0,-100.00,West,264,3.0,10.0,8,0.00,,,0.00,26.000000,,2013-01-22 16:23:00,
2013-01-22 09:54:00,49.0,-12.0,-100.00,West,262,12.0,21.0,7,0.00,,,0.00,178.000000,,2013-01-22 16:54:00,
2013-01-22 10:03:00,49.0,-12.0,-100.00,West,262,12.0,21.0,7,0.00,,,0.00,178.000000,,2013-01-22 17:03:00,
2013-01-22 10:13:00,49.0,-12.0,-100.00,West,262,12.0,21.0,7,0.00,,,0.00,178.000000,,2013-01-22 17:13:00,
2013-01-22 10:23:00,49.0,-12.0,-100.00,West,262,12.0,21.0,7,0.00,,,0.00,178.000000,,2013-01-22 17:23:00,
2013-01-22 10:54:00,52.0,-13.0,-100.00,West,281,10.0,26.0,6,0.00,,,0.00,330.000000,,2013-01-22 17:54:00,
2013-01-22 11:04:00,52.0,-13.0,-100.00,West,281,10.0,26.0,6,0.00,,,0.00,330.000000,,2013-01-22 18:04:00,
2013-01-22 11:13:00,52.0,-13.0,-100.00,West,281,10.0,26.0,6,0.00,,,0.00,330.000000,,2013-01-22 18:13:00,
2013-01-22 11:23:00,52.0,-13.0,-100.00,West,281,10.0,26.0,6,0.00,,,0.00,330.000000,,2013-01-22 18:23:00,
2013-01-22 11:54:00,55.0,-8.0,-100.00,SW,228,6.0,24.0,7,0.00,,,0.00,448.000000,,2013-01-22 18:54:00,
2013-01-22 12:03:00,55.0,-8.0,-100.00,SW,228,6.0,24.0,7,0.00,,,0.00,448.000000,,2013-01-22 19:03:00,
2013-01-22 12:13:00,55.0,-8.0,-100.00,SW,228,6.0,24.0,7,0.00,,,0.00,448.000000,,2013-01-22 19:13:00,
2013-01-22 12:23:00,55.0,-8.0,-100.00,SW,228,6.0,24.0,7,0.00,,,0.00,448.000000,,2013-01-22 19:23:00,
2013-01-22 12:54:00,60.0,-16.0,-100.00,WSW,246,4.0,20.0,4,0.00,,,0.00,512.000000,,2013-01-22 19:54:00,
2013-01-22 13:03:00,60.0,-16.0,-100.00,WSW,246,4.0,20.0,4,0.00,,,0.00,512.000000,,2013-01-22 20:03:00,
2013-01-22 13:13:00,60.0,-16.0,-100.00,WSW,246,4.0,20.0,4,0.00,,,0.00,512.000000,,2013-01-22 20:13:00,
2013-01-22 13:23:00,60.0,-16.0,-100.00,WSW,246,4.0,20.0,4,0.00,,,0.00,512.000000,,2013-01-22 20:23:00,
2013-01-22 13:53:00,62.0,-20.0,-100.00,SE,134,4.0,10.0,3,0.00,,,0.00,566.000000,,2013-01-22 20:53:00,
2013-01-22 14:03:00,62.0,-20.0,-100.00,SE,134,4.0,10.0,3,0.00,,,0.00,566.000000,,2013-01-22 21:03:00,
2013-01-22 14:13:00,62.0,-20.0,-100.00,SE,134,4.0,10.0,3,0.00,,,0.00,566.000000,,2013-01-22 21:13:00,
2013-01-22 14:23:00,62.0,-20.0,-100.00,SE,134,4.0,10.0,3,0.00,,,0.00,566.000000,,2013-01-22 21:23:00,
2013-01-22 14:53:00,60.0,-21.0,-100.00,WNW,287,10.0,25.0,3,0.00,,,0.00,529.000000,,2013-01-22 21:53:00,
2013-01-22 15:03:00,60.0,-21.0,-100.00,WNW,287,10.0,25.0,3,0.00,,,0.00,529.000000,,2013-01-22 22:03:00,
2013-01-22 15:12:00,60.0,-21.0,-100.00,WNW,287,10.0,25.0,3,0.00,,,0.00,529.000000,,2013-01-22 22:12:00,
2013-01-22 15:22:00,60.0,-21.0,-100.00,WNW,287,10.0,25.0,3,0.00,,,0.00,529.000000,,2013-01-22 22:22:00,
2013-01-22 15:53:00,62.0,-20.0,-100.00,SSE,154,3.0,17.0,3,0.00,,,0.00,429.000000,,2013-01-22 22:53:00,
2013-01-22 16:03:00,62.0,-20.0,-100.00,SSE,154,3.0,17.0,3,0.00,,,0.00,429.000000,,2013-01-22 23:03:00,
2013-01-22 16:12:00,62.0,-20.0,-100.00,SSE,154,3.0,17.0,3,0.00,,,0.00,429.000000,,2013-01-22 23:12:00,
2013-01-22 16:23:00,62.0,-20.0,-100.00,SSE,154,3.0,17.0,3,0.00,,,0.00,429.000000,,2013-01-22 23:23:00,
2013-01-22 16:53:00,59.0,-22.0,-100.00,NW,311,3.0,8.0,3,0.00,,,0.00,285.000000,,2013-01-22 23:53:00,
2013-01-22 17:03:00,59.0,-22.0,-100.00,NW,311,3.0,8.0,3,0.00,,,0.00,285.000000,,2013-01-23 00:03:00,
2013-01-22 17:12:00,59.0,-22.0,-100.00,NW,311,3.0,8.0,3,0.00,,,0.00,285.000000,,2013-01-23 00:12:00,
2013-01-22 17:22:00,59.0,-22.0,-100.00,NW,311,3.0,8.0,3,0.00,,,0.00,285.000000,,2013-01-23 00:22:00,
2013-01-22 17:52:00,47.0,-17.0,-100.00,WNW,300,2.0,7.0,6,0.00,,,0.00,58.000000,,2013-01-23 00:52:00,
2013-01-22 18:03:00,47.0,-17.0,-100.00,WNW,300,2.0,7.0,6,0.00,,,0.00,58.000000,,2013-01-23 01:03:00,
2013-01-22 18:13:00,47.0,-17.0,-100.00,WNW,300,2.0,7.0,6,0.00,,,0.00,58.000000,,2013-01-23 01:13:00,
2013-01-22 18:23:00,47.0,-17.0,-100.00,WNW,300,2.0,7.0,6,0.00,,,0.00,58.000000,,2013-01-23 01:23:00,
2013-01-22 18:53:00,43.0,-17.0,-100.00,WNW,299,2.0,6.0,7,0.00,,,0.00,4.000000,,2013-01-23 01:53:00,
2013-01-22 19:03:00,43.0,-17.0,-100.00,WNW,299,2.0,6.0,7,0.00,,,0.00,4.000000,,2013-01-23 02:03:00,
2013-01-22 19:12:00,43.0,-17.0,-100.00,WNW,299,2.0,6.0,7,0.00,,,0.00,4.000000,,2013-01-23 02:12:00,
2013-01-22 19:23:00,43.0,-17.0,-100.00,WNW,299,2.0,6.0,7,0.00,,,0.00,4.000000,,2013-01-23 02:23:00,
2013-01-22 19:53:00,40.0,-17.0,-100.00,WNW,296,3.0,7.0,8,0.00,,,0.00,1.000000,,2013-01-23 02:53:00,
2013-01-22 20:03:00,40.0,-17.0,-100.00,WNW,296,3.0,7.0,8,0.00,,,0.00,1.000000,,2013-01-23 03:03:00,
2013-01-22 20:13:00,40.0,-17.0,-100.00,WNW,296,3.0,7.0,8,0.00,,,0.00,1.000000,,2013-01-23 03:13:00,
2013-01-22 20:23:00,40.0,-17.0,-100.00,WNW,296,3.0,7.0,8,0.00,,,0.00,1.000000,,2013-01-23 03:23:00,
2013-01-22 20:53:00,42.0,-15.0,-100.00,WNW,286,5.0,9.0,8,0.00,,,0.00,1.000000,,2013-01-23 03:53:00,
2013-01-22 21:03:00,42.0,-15.0,-100.00,WNW,286,5.0,9.0,8,0.00,,,0.00,1.000000,,2013-01-23 04:03:00,
2013-01-22 21:12:00,42.0,-15.0,-100.00,WNW,286,5.0,9.0,8,0.00,,,0.00,1.000000,,2013-01-23 04:12:00,
2013-01-22 21:22:00,42.0,-15.0,-100.00,WNW,286,5.0,9.0,8,0.00,,,0.00,1.000000,,2013-01-23 04:22:00,
2013-01-22 21:53:00,46.0,-18.0,-100.00,West,278,10.0,16.0,6,0.00,,,0.00,1.000000,,2013-01-23 04:53:00,
2013-01-22 22:03:00,46.0,-18.0,-100.00,West,278,10.0,16.0,6,0.00,,,0.00,1.000000,,2013-01-23 05:03:00,
2013-01-22 22:12:00,46.0,-18.0,-100.00,West,278,10.0,16.0,6,0.00,,,0.00,1.000000,,2013-01-23 05:12:00,
2013-01-22 22:22:00,46.0,-18.0,-100.00,West,278,10.0,16.0,6,0.00,,,0.00,1.000000,,2013-01-23 05:22:00,
2013-01-22 22:53:00,49.0,-23.0,-100.00,WNW,285,7.0,20.0,4,0.00,,,0.00,1.000000,,2013-01-23 05:53:00,
2013-01-22 23:02:00,49.0,-23.0,-100.00,WNW,285,7.0,20.0,4,0.00,,,0.00,1.000000,,2013-01-23 06:02:00,
2013-01-22 23:12:00,49.0,-23.0,-100.00,WNW,285,7.0,20.0,4,0.00,,,0.00,1.000000,,2013-01-23 06:12:00,
2013-01-22 23:22:00,49.0,-23.0,-100.00,WNW,285,7.0,20.0,4,0.00,,,0.00,1.000000,,2013-01-23 06:22:00,
2013-01-22 23:53:00,48.0,-29.0,-100.00,WNW,291,5.0,14.0,3,0.00,,,-99.99,1.000000,,2013-01-23 06:53:00,